Starlink 34838

operational
NORAD ID: 65343 Int'l Des: 2025-189 Owner: SPXS Country: US Constellation: starlink
LEOCIRCULAR

About Starlink 34838

Description loading...

Live Position

Loading 3D Globe...

Upcoming Passes

Altitude History

Altitude vs Time

uPlot chart will show altitude changes over time

Two-Line Element Set

1 65343U 25189W 26061.64722576 .00026674 00000-0 90949-3 0 9999
2 65343 53.1564 239.7928 0000681 70.4246 289.6828 15.30199784 30031
Epoch: Mar 2, 2026 • Age: 45 hours

Current Status

Altitude 491.5 km
Velocity 7.62 km/s
Sub-Earth Point -47.00°S, 6.74°W
Launch Date Aug 27, 2025
Age 0.5 years
Type internet

Technical Details

Classification Payload
Mass 575.00 kg
Dry Mass 530.00 kg
Total Mass 575.00 kg
Length 0.30 m
Diameter 4.10 m
Span 29.00 m
Shape Box + pan
Manufacturer SPXS
Bus Type Starlink V2MO
Phase Status In Orbit
Owner/State SPXS/US

Large Constellations

Loading constellations...